This demonstration page uses our WeatherBlox Daily Observations layout. Learn more.

Left ArrowRight Arrow

38.80484, -77.04692

Hourly Observations for May 22, 2015

Temp ( °F °C ) Dew Point ( °F °C ) Humidity (%) Winds ( mph kmh ) Pressure ( in mb ) Visibility ( mi km ) Precip ( " mm )
12:52 am 00:52 Partly Cloudy 54 12.2 49 9.4 83 83 WNW 6 9 29.96 1015 10 16 N/A
1:52 am 01:52 Partly Cloudy 55 12.8 49 9.4 80 80 NW 7 11 29.97 1015 10 16 N/A
2:52 am 02:52 Partly Cloudy 55 12.8 48 8.9 77 77 WNW 8 13 29.97 1015 10 16 N/A
3:52 am 03:52 Mostly Clear 54 12.2 45 7.2 72 72 WNW 7 11 29.99 1016 10 16 N/A
4:52 am 04:52 Mostly Clear 54 12.2 45 7.2 72 72 WNW 6 9 30.01 1016 10 16 N/A
5:52 am 05:52 Partly Cloudy 53 11.7 44 6.7 72 72 SW 3 6 30.04 1017 10 16 N/A
6:52 am 06:52 Sunny 54 12.2 44 6.7 69 69 WNW 6 9 30.06 1018 10 16 N/A
7:52 am 07:52 Sunny 58 14.4 44 6.7 60 60 W 7 11 30.07 1018 10 16 N/A
8:52 am 08:52 Sunny 62 16.7 44 6.7 52 52 NNW 10 17 30.09 1019 10 16 N/A
9:52 am 09:52 Sunny 65 18.3 45 7.2 49 49 NW 10 17 30.10 1019 10 16 N/A
10:52 am 10:52 Sunny 68 20 44 6.7 42 42 WNW 15 24 30.11 1020 10 16 N/A
11:52 am 11:52 Mostly Sunny 72 22.2 44 6.7 37 37 WNW 13 20 30.11 1020 10 16 N/A
12:52 pm 12:52 Mostly Sunny 73 22.8 42 5.6 33 33 NNW 14 22 30.11 1020 10 16 N/A
1:52 pm 13:52 Mostly Sunny 74 23.3 43 6.1 33 33 W 12 19 30.09 1019 10 16 N/A
2:52 pm 14:52 Mostly Sunny 76 24.4 43 6.1 31 31 WSW 14 22 30.09 1019 10 16 N/A
3:52 pm 15:52 Partly Cloudy 78 25.6 43 6.1 29 29 W 14 22 30.09 1019 10 16 N/A
4:52 pm 16:52 Partly Cloudy 79 26.1 42 5.6 27 27 WNW 22 35 30.08 1019 10 16 N/A
5:52 pm 17:52 Partly Cloudy 78 25.6 41 5 27 27 WNW 12 19 30.08 1019 10 16 N/A
6:52 pm 18:52 Partly Cloudy 77 25 38 3.3 24 24 WNW 17 28 30.10 1019 10 16 N/A
7:52 pm 19:52 Mostly Sunny 75 23.9 39 3.9 27 27 W 12 19 30.12 1020 10 16 N/A
8:52 pm 20:52 Mostly Clear 73 22.8 41 5 32 32 WNW 14 22 30.15 1021 10 16 N/A
9:52 pm 21:52 Clear 70 21.1 42 5.6 37 37 W 7 11 30.18 1022 10 16 N/A
10:52 pm 22:52 Mostly Clear 69 20.6 43 6.1 39 39 W 9 15 30.21 1023 10 16 N/A
11:52 pm 23:52 Mostly Clear 67 19.4 45 7.2 45 45 W 7 11 30.24 1024 10 16 N/A

Powered by AerisWeather